Hourly Data Report for September 23, 2017

All times are specified in Local Standard Time (LST). Add 1 hour to adjust for Daylight Saving Time where and when it is observed.

BAS CARAQUET
NEW BRUNSWICK

47°48'08.000" N
64°50'00.000" W
5.00 m
8100467
71598
WXS

Download Data

Hourly Data (September 2017)
Hourly Data Report for September 23, 2017
Temp Definition
°C
Dew Point Temp Definition
°C
Rel Hum Definition
%
Wind Dir Definition
10's deg

Wind Spd Definition
km/h
Visibility Definition
km
Stn Press Definition
kPa
Hmdx Definition


Wind Chill Definition


Weather Definition


TIME
00:00 14.4 9.9 74 19 12   101.59     LegendNANA
01:00 13.8 9.6 76 20 10   101.57     LegendNANA
02:00 13.5 8.5 71 20 9   101.50     LegendNANA
03:00 12.8 7.7 71 21 7   101.39     LegendNANA
04:00 12.1 7.3 72 23 6   101.36     LegendNANA
05:00 11.8 7.3 74 23 6   101.29     LegendNANA
06:00 12.1 7.7 74 22 7   101.23     LegendNANA
07:00 13.4 8.5 72 22 8   101.21     LegendNANA
08:00 16.0 9.0 63 19 9   101.14     LegendNANA
09:00 18.2 9.1 55 21 9   101.07     LegendNANA
10:00 19.2 11.3 60 25 8   101.11     LegendNANA
11:00 20.0 10.4 54 28 15   101.09     LegendNANA
12:00 22.0 13.5 59 27 19   101.06 25   LegendNANA
13:00 23.8 14.1 55 27 19   101.04 27   LegendNANA
14:00 24.1 14.5 55 28 16   101.05 28   LegendNANA
15:00 25.4 15.5 54 27 15   101.07 30   LegendNANA
16:00 24.7 14.4 53 28 15   101.11 28   LegendNANA
17:00 19.6 13.1 66 32 14   101.23     LegendNANA
18:00 18.2 12.4 69 12 10   101.34     LegendNANA
19:00 15.2 10.9 75 10 5   101.48     LegendNANA
20:00 14.4 10.0 75 7 5   101.58     LegendNANA
21:00 11.7 9.1 84 8 1   101.61     LegendNANA
22:00 14.4 10.3 76 8 7   101.66     LegendNANA
23:00 15.1 9.7 70 5 12   101.74     LegendNANA

Notes on Data Quality.

Legend

  • E = Estimated
  • M = Missing
  • NA = Not Available
  • ‡ = Partner data that is not subject to review by the National Climate Archives
Date modified: